Retour au catalogue

DELTA 1 DEB

ActifSSO
NORAD 10754·DEBRIS·🇺🇸 United States

Lancé Jul 29, 1976 depuis Vandenberg Space Force Base

Loading…

Prochains Passages (prochaines 24 heures)

TLE

FraisSource: Space-Track

Époque: Sep 14, 2026, 11:38 UTC

1 10754U 76077BB  26257.48540851 -.00000050  00000-0 -28973-4 0  9991
2 10754 102.7244 246.9364 0122791 291.9443 220.8869 12.21687061236344

Suivez DELTA 1 DEB en temps réel avec AllMySat

Download on the App Store